Location: Unspecified
(0.0000°N, 0.0000°E)
Time: 07:37:46
(UTC+00:00)

Hubble Space Telescope - Pass Details

Date: 13 January 2019
Orbit: 537 x 540 km, 28.5° (Epoch: 18 March)

Event Time Altitude Azimuth Distance (km) Brightness Sun altitude
Exits shadow 05:02:27 20° 334° (NNW) 1,284 2.3 -15.3°
Drops below altitude 10° 05:05:22 10° 19° (NNE) 1,781 3.4 -14.7°
Sets 05:08:06 0° 37° (NE) 2,670 4.5 -14.0°
